Location: Noverd
(38.0910°N, 121.6877°W)
Time: 01:52:42
(UTC+00:00)

GP-B - Pass Details

Date: 13 February 2026
Orbit: 618 x 621 km, 89.8° (Epoch: 13 March)

Event Time Altitude Azimuth Distance (km) Brightness Sun altitude
Rises 14:03:23 0° 359° (N) 2,902 6.4 -11.5°
Reaches altitude 10° 14:05:36 10° 358° (N) 1,991 5.6 -11.1°
Maximum altitude 14:09:57 73° 275° (W) 651 3.0 -10.2°
Drops below altitude 10° 14:14:17 10° 190° (S) 1,975 5.7 -9.4°
Sets 14:16:28 0° 188° (S) 2,876 6.5 -9.0°
